| time (UTC) | temp F | wind direction | speed MPH | gust MPH | rain 1hr in | rain 24hr in | rain mn in | humidity % | barometer mb |
| 20260506214528 | 68 | 30 | 1.0 | 10.0 | 0.00 | 0.02 | 0.02 | 71 | 1012.0 |
| 20260506213031 | 68 | 53 | 3.0 | 12.0 | 0.00 | 0.02 | 0.02 | 70 | 1011.7 |
| 20260506211532 | 71 | 72 | 1.0 | 8.0 | 0.00 | 0.02 | 0.02 | 68 | 1011.7 |
| 20260506210030 | 72 | 298 | 3.0 | 11.0 | 0.00 | 0.02 | 0.02 | 68 | 1011.9 |
| 20260506204530 | 73 | 76 | 2.0 | 11.0 | 0.00 | 0.02 | 0.02 | 68 | 1012.1 |
| 20260506203030 | 72 | 134 | 2.0 | 7.0 | 0.00 | 0.02 | 0.02 | 71 | 1012.0 |
| 20260506201529 | 72 | 162 | 3.0 | 11.0 | 0.00 | 0.02 | 0.02 | 72 | 1011.8 |
| 20260506200026 | 73 | 78 | 1.0 | 10.0 | 0.00 | 0.02 | 0.02 | 72 | 1011.5 |
| 20260506194528 | 76 | 129 | 2.0 | 9.0 | 0.00 | 0.02 | 0.02 | 70 | 1011.2 |
| 20260506193030 | 78 | 53 | 1.0 | 8.0 | 0.00 | 0.02 | 0.02 | 70 | 1011.1 |
| 20260506191527 | 78 | 113 | 2.0 | 8.0 | 0.00 | 0.02 | 0.02 | 69 | 1011.3 |
| 20260506190028 | 79 | 46 | 3.0 | 6.0 | 0.00 | 0.02 | 0.02 | 68 | 1011.5 |
| 20260506184526 | 77 | 63 | 2.0 | 7.0 | 0.00 | 0.02 | 0.02 | 71 | 1011.4 |
| 20260506183028 | 76 | 110 | 1.0 | 5.0 | 0.00 | 0.02 | 0.02 | 73 | 1011.6 |
| 20260506181528 | 74 | 84 | 0.0 | 7.0 | 0.00 | 0.02 | 0.02 | 76 | 1011.7 |
| 20260506180028 | 74 | 60 | 1.0 | 6.0 | 0.00 | 0.02 | 0.02 | 76 | 1011.5 |
| 20260506174529 | 71 | 131 | 1.0 | 6.0 | 0.00 | 0.02 | 0.02 | 79 | 1011.5 |
| 20260506173029 | 70 | 75 | 1.0 | 5.0 | 0.02 | 0.02 | 0.02 | 81 | 1011.9 |
| 20260506171528 | 67 | 66 | 3.0 | 8.0 | 0.02 | 0.02 | 0.02 | 86 | 1011.7 |
| 20260506170026 | 66 | 163 | 5.0 | 10.0 | 0.02 | 0.02 | 0.02 | 89 | 1011.9 |
| 20260506164530 | 65 | 49 | 3.0 | 8.0 | 0.02 | 0.02 | 0.02 | 91 | 1012.1 |
| 20260506163032 | 64 | 232 | 4.0 | 13.0 | 0.00 | 0.00 | 0.00 | 87 | 1012.7 |
| 20260506161533 | 66 | 25 | 4.0 | 9.0 | 0.00 | 0.00 | 0.00 | 87 | 1013.0 |
| 20260506160029 | 68 | 82 | 6.0 | 15.0 | 0.00 | 0.00 | 0.00 | 84 | 1012.9 |
| 20260506154530 | 72 | 79 | 3.0 | 12.0 | 0.00 | 0.00 | 0.00 | 80 | 1012.4 |
| 20260506153027 | 77 | 0 | 0.0 | 2.0 | 0.00 | 0.00 | 0.00 | 86 | 1011.9 |
| 20260506151529 | 77 | 85 | 0.0 | 2.0 | 0.00 | 0.00 | 0.00 | 86 | 1011.4 |
| 20260506150027 | 77 | 72 | 1.0 | 2.0 | 0.00 | 0.00 | 0.00 | 86 | 1011.2 |
| 20260506144527 | 77 | 0 | 0.0 | 4.0 | 0.00 | 0.00 | 0.00 | 86 | 1010.7 |
| 20260506143030 | 77 | 0 | 0.0 | 4.0 | 0.00 | 0.00 | 0.00 | 86 | 1010.4 |
| 20260506141533 | 77 | 58 | 1.0 | 2.0 | 0.00 | 0.00 | 0.00 | 87 | 1010.1 |
| 20260506140030 | 76 | 73 | 1.0 | 2.0 | 0.00 | 0.00 | 0.00 | 88 | 1010.5 |
| 20260506134529 | 75 | 95 | 1.0 | 2.0 | 0.00 | 0.00 | 0.00 | 89 | 1009.7 |
| 20260506133027 | 75 | 56 | 0.0 | 3.0 | 0.00 | 0.00 | 0.00 | 89 | 1009.7 |
| 20260506131528 | 75 | 0 | 0.0 | 4.0 | 0.00 | 0.00 | 0.00 | 89 | 1009.6 |
| 20260506130027 | 75 | 53 | 1.0 | 4.0 | 0.00 | 0.00 | 0.00 | 89 | 1009.5 |
| 20260506124526 | 75 | 96 | 0.0 | 3.0 | 0.00 | 0.00 | 0.00 | 89 | 1009.4 |
| 20260506123026 | 75 | 89 | 1.0 | 3.0 | 0.00 | 0.00 | 0.00 | 89 | 1009.3 |
| 20260506121529 | 75 | 56 | 0.0 | 3.0 | 0.00 | 0.00 | 0.00 | 89 | 1009.3 |
| 20260506120030 | 75 | 0 | 0.0 | 1.0 | 0.00 | 0.00 | 0.00 | 89 | 1009.0 |
| 20260506114527 | 75 | 0 | 0.0 | 1.0 | 0.00 | 0.00 | 0.00 | 88 | 1009.1 |
| 20260506113027 | 75 | 0 | 0.0 | 1.0 | 0.00 | 0.00 | 0.00 | 88 | 1009.1 |
| 20260506111526 | 75 | 0 | 0.0 | 1.0 | 0.00 | 0.00 | 0.00 | 88 | 1009.2 |
| 20260506110030 | 76 | 243 | 0.0 | 1.0 | 0.00 | 0.00 | 0.00 | 88 | 1009.1 |
| 20260506104529 | 76 | 0 | 0.0 | 1.0 | 0.00 | 0.00 | 0.00 | 88 | 1009.0 |
| 20260506103026 | 75 | 0 | 0.0 | 1.0 | 0.00 | 0.00 | 0.00 | 88 | 1009.0 |
| 20260506101525 | 75 | 0 | 1.0 | 6.0 | 0.00 | 0.00 | 0.00 | 88 | 1008.7 |
| 20260506100028 | 75 | 268 | 0.0 | 4.0 | 0.00 | 0.00 | 0.00 | 88 | 1008.6 |
| 20260506094528 | 75 | 252 | 1.0 | 5.0 | 0.00 | 0.00 | 0.00 | 88 | 1008.3 |
| 20260506093034 | 75 | 248 | 0.0 | 5.0 | 0.00 | 0.00 | 0.00 | 88 | 1008.1 |
| 20260506091531 | 75 | 259 | 1.0 | 5.0 | 0.00 | 0.00 | 0.00 | 88 | 1008.0 |
| 20260506090027 | 75 | 253 | 1.0 | 6.0 | 0.00 | 0.00 | 0.00 | 88 | 1007.8 |
| 20260506084534 | 76 | 219 | 2.0 | 9.0 | 0.00 | 0.00 | 0.00 | 88 | 1007.9 |
| 20260506083030 | 76 | 255 | 2.0 | 4.0 | 0.00 | 0.00 | 0.00 | 88 | 1007.9 |
| 20260506081529 | 76 | 250 | 1.0 | 4.0 | 0.00 | 0.00 | 0.00 | 88 | 1007.9 |
| 20260506073028 | 76 | 214 | 1.0 | 4.0 | 0.00 | 0.00 | 0.00 | 87 | 1008.2 |
| 20260506071529 | 76 | 229 | 0.0 | 4.0 | 0.00 | 0.00 | 0.00 | 87 | 1008.5 |
| 20260506061528 | 76 | 263 | 2.0 | 5.0 | 0.00 | 0.00 | 0.00 | 87 | 1008.6 |
| 20260506044538 | 77 | 199 | 2.0 | 6.0 | 0.00 | 0.00 | 0.00 | 86 | 1008.6 |
| 20260506043030 | 77 | 57 | 0.0 | 4.0 | 0.00 | 0.00 | 0.00 | 86 | 1008.6 |
| 20260506041541 | 77 | 302 | 1.0 | 5.0 | 0.00 | 0.00 | 0.00 | 85 | 1008.3 |
| 20260506040033 | 77 | 271 | 0.0 | 2.0 | 0.00 | 0.00 | 0.00 | 85 | 1008.1 |
| 20260506034531 | 78 | 231 | 0.0 | 4.0 | 0.00 | 0.00 | 0.00 | 84 | 1007.9 |
| 20260506033026 | 78 | 0 | 0.0 | 5.0 | 0.00 | 0.00 | 0.00 | 84 | 1007.9 |
| 20260506031530 | 78 | 0 | 0.0 | 3.0 | 0.00 | 0.00 | 0.00 | 83 | 1007.6 |
| 20260506030030 | 78 | 330 | 0.0 | 5.0 | 0.00 | 0.00 | 0.00 | 82 | 1007.5 |
| 20260506024528 | 79 | 30 | 0.0 | 2.0 | 0.00 | 0.00 | 0.00 | 81 | 1007.4 |
| 20260506023030 | 79 | 333 | 1.0 | 5.0 | 0.00 | 0.00 | 0.00 | 80 | 1007.0 |
| 20260506021528 | 80 | 0 | 0.0 | 2.0 | 0.00 | 0.00 | 0.00 | 78 | 1006.6 |
| 20260506020026 | 80 | 108 | 0.0 | 4.0 | 0.00 | 0.00 | 0.00 | 77 | 1006.3 |
| 20260506014528 | 81 | 18 | 0.0 | 3.0 | 0.00 | 0.00 | 0.00 | 76 | 1006.1 |
| 20260506013032 | 81 | 79 | 1.0 | 3.0 | 0.00 | 0.00 | 0.00 | 75 | 1006.2 |
| 20260506011539 | 82 | 241 | 0.0 | 4.0 | 0.00 | 0.00 | 0.00 | 75 | 1006.3 |
| 20260506010029 | 82 | 0 | 0.0 | 3.0 | 0.00 | 0.00 | 0.00 | 74 | 1006.3 |
| 20260506004539 | 82 | 0 | 0.0 | 2.0 | 0.00 | 0.00 | 0.00 | 73 | 1006.4 |
| 20260506003031 | 83 | 266 | 0.0 | 4.0 | 0.00 | 0.00 | 0.00 | 72 | 1006.2 |
| 20260506001527 | 83 | 222 | 0.0 | 5.0 | 0.00 | 0.00 | 0.00 | 72 | 1006.1 |
| 20260506000027 | 83 | 254 | 1.0 | 4.0 | 0.00 | 0.00 | 0.00 | 71 | 1006.1 |
| 20260505234530 | 83 | 209 | 0.0 | 5.0 | 0.00 | 0.00 | 0.00 | 71 | 1006.0 |
| 20260505233032 | 83 | 247 | 1.0 | 4.0 | 0.00 | 0.00 | 0.00 | 70 | 1005.9 |
| 20260505231536 | 84 | 269 | 2.0 | 5.0 | 0.00 | 0.00 | 0.00 | 70 | 1005.8 |
| 20260505230028 | 84 | 230 | 0.0 | 5.0 | 0.00 | 0.00 | 0.00 | 69 | 1005.6 |
| 20260505224528 | 84 | 251 | 1.0 | 5.0 | 0.00 | 0.00 | 0.00 | 68 | 1005.6 |
| 20260505223033 | 85 | 153 | 2.0 | 6.0 | 0.00 | 0.00 | 0.00 | 68 | 1005.6 |
| 20260505221600 | 85 | 224 | 2.0 | 6.0 | 0.00 | 0.00 | 0.00 | 67 | 1005.6 |
| 20260505220046 | 86 | 184 | 2.0 | 5.0 | 0.00 | 0.00 | 0.00 | 66 | 1005.8 |